Location: Alsip
(41.6689°N, 87.7387°W)
Time: 13:51:36
(UTC+00:00)

IRIDIUM 104 - Pass Details

Date: 14 July 2020
Orbit: 776 x 779 km, 86.4° (Epoch: 12 August)

Event Time Altitude Azimuth Distance (km) Brightness Sun altitude
Exits shadow 04:58:10 59° 230° (SW) 900 4.4 -25.3°
Maximum altitude 04:58:53 67° 274° (W) 848 4.5 -25.3°
Drops below altitude 10° 05:04:06 10° 357° (N) 2,340 7.8 -25.6°
Sets 05:06:29 0° 0° (N) 3,272 8.8 -25.7°
